Starlink 31376

decayed
NORAD ID: 59524 Int'l Des: 2024-073 Owner: SPXS Country: US Constellation: starlink
LEOCIRCULAR
グループ

Starlink 31376について

説明を読み込み中...

高度履歴

Altitude vs Time

uPlot chart will show altitude changes over time

軌道要素

1 59524U 24073P 25257.31028606 .04322235 87312-5 23939-2 0 9993
2 59524 42.9813 210.1749 0033396 162.8343 197.3679 16.17023319 79471
Epoch: Sep 14, 2025 • Age: 2221 hours

現在のステータス

Position data unavailable
打ち上げ日 Apr 17, 2024
運用期間 1.6 years
落下予定日 Sep 15, 2025
タイプ internet

技術仕様

分類 Payload
質量 730.00 kg
乾燥質量 700.00 kg
総質量 730.00 kg
長さ 0.30 m
直径 4.10 m
スパン 29.00 m
形状 Box + pan
製造者 SPXS
バスタイプ Starlink V2M
フェーズステータス Reentered
所有者/国 SPXS/US

大規模コンステレーション

Loading constellations...